TimeAKDT,TemperatureF,Dew PointF,Humidity,Sea Level PressureIn,VisibilityMPH,Wind Direction,Wind SpeedMPH,Gust SpeedMPH,PrecipitationIn,Events,Conditions,WindDirDegrees,DateUTC
12:54 AM,39.0,32.0,76,30.06,10.0,ENE,9.2,-,N/A,,Clear,70,2013-04-18 08:54:00
1:54 AM,39.0,32.0,76,30.06,10.0,ENE,10.4,-,N/A,,Clear,70,2013-04-18 09:54:00
2:54 AM,37.9,30.9,76,30.04,10.0,East,9.2,-,N/A,,Clear,80,2013-04-18 10:54:00
3:54 AM,37.9,30.0,73,30.03,10.0,Variable,6.9,-,N/A,,Clear,0,2013-04-18 11:54:00
4:54 AM,37.9,30.0,73,30.04,10.0,East,5.8,-,N/A,,Clear,80,2013-04-18 12:54:00
5:54 AM,36.0,30.0,79,30.02,10.0,ENE,4.6,-,N/A,,Clear,60,2013-04-18 13:54:00
6:54 AM,32.0,28.9,88,30.01,10.0,WNW,4.6,-,N/A,,Clear,300,2013-04-18 14:54:00
7:54 AM,32.0,30.0,92,30.01,10.0,Calm,Calm,-,N/A,,Clear,0,2013-04-18 15:54:00
8:54 AM,37.9,30.9,76,30.00,10.0,Calm,Calm,-,N/A,,Clear,0,2013-04-18 16:54:00
9:54 AM,41.0,28.9,62,29.99,10.0,SE,5.8,-,N/A,,Clear,130,2013-04-18 17:54:00
10:54 AM,43.0,28.9,58,29.98,10.0,SE,9.2,-,N/A,,Clear,140,2013-04-18 18:54:00
11:54 AM,43.0,27.0,53,29.96,10.0,ESE,11.5,-,N/A,,Overcast,120,2013-04-18 19:54:00
12:54 PM,42.1,28.0,58,29.96,10.0,Variable,6.9,-,N/A,,Overcast,0,2013-04-18 20:54:00
1:54 PM,42.1,28.0,58,29.96,10.0,South,8.1,-,0.00,,Overcast,180,2013-04-18 21:54:00
2:54 PM,37.0,30.0,76,29.97,4.0,Variable,3.5,-,0.01,Snow,Light Snow,0,2013-04-18 22:54:00
3:54 PM,37.0,30.0,76,29.97,6.0,West,11.5,-,0.00,Snow,Light Snow,280,2013-04-18 23:54:00
4:37 PM,39.2,28.4,65,29.96,10.0,West,12.7,-,0.00,,Overcast,270,2013-04-19 00:37:00
4:54 PM,39.0,28.0,65,29.96,10.0,West,11.5,-,0.00,,Overcast,280,2013-04-19 00:54:00
5:54 PM,39.0,23.0,53,29.95,10.0,WNW,11.5,19.6,N/A,,Overcast,300,2013-04-19 01:54:00
6:54 PM,39.0,23.0,53,29.95,10.0,NW,9.2,-,N/A,,Overcast,310,2013-04-19 02:54:00
7:54 PM,37.0,21.9,54,29.97,10.0,NW,11.5,20.7,N/A,,Overcast,310,2013-04-19 03:54:00
8:54 PM,36.0,21.0,55,29.98,10.0,NW,13.8,20.7,N/A,,Overcast,310,2013-04-19 04:54:00
9:54 PM,36.0,19.0,50,30.00,10.0,NW,9.2,-,N/A,,Overcast,320,2013-04-19 05:54:00
10:54 PM,35.1,16.0,46,30.02,10.0,WNW,9.2,18.4,N/A,,Partly Cloudy,300,2013-04-19 06:54:00
11:54 PM,35.1,14.0,42,30.04,10.0,WNW,11.5,21.9,N/A,,Partly Cloudy,300,2013-04-19 07:54:00